Regional Weather Roundup
Issued by NWS Charleston, SC

Current Version | Previous Version | Graphics & Text | Print | Product List | Glossary On
Versions: 1 2 3 4 5 6 7 8 9 10 11 12 13 14 15 16 17 18 19 20 21 22 23 24 25 26 27 28 29 30 31 32 33 34 35 36 37 38 39 40 41 42 43 44 45 46 47 48 49 50
000 ASUS42 KCHS 310111 RWRCHS REGIONAL WEATHER ROUNDUP NATIONAL WEATHER SERVICE CHARLESTON SC 800 PM EST FRI JAN 30 2015 NOTE: "FAIR" INDICATES FEW OR NO CLOUDS BELOW 12,000 FEET WITH NO SIGNIFICANT WEATHER AND/OR OBSTRUCTIONS TO VISIBILITY. NOT ALL STATIONS ARE QUALITY CONTROLLED BY THE NATIONAL WEATHER SERVICE. USE DATA WITH CAUTION...ESPECIALLY DEWPOINT OBSERVATIONS. SCZ027-030-031-034>040-042>050-310200- ...SOUTHEAST SOUTH CAROLINA... CITY SKY/WX TMP DP RH WIND PRES REMARKS N CHARLESTON CLEAR 43 24 47 N9 30.24R WATERFRONT PRK N/A 50 N/A N/A NW8G14 N/A MOUNT PLEASANT FAIR 46 28 49 CALM 30.24R PINOPOLIS N/A 52 34 50 NW9 30.15R MONCKS CORNER FAIR 48 23 37 NW3 30.24R SUMMERVILLE NOT AVBL BEAUFORT MCAS FAIR 45 32 60 N5 30.25R BEAUFORT ARPT FAIR 45 32 61 NW3 30.24R HILTON HEAD IS CLEAR 48 36 61 N5 30.25R WALTERBORO CLEAR 45 18 33 CALM 30.25R ALLENDALE FAIR 46 27 46 CALM 30.24S ...SOUTHERN MIDLANDS AND PEE DEE... CITY SKY/WX TMP DP RH WIND PRES REMARKS GEORGETOWN NOT AVBL KINGSTREE NOT AVBL ORANGEBURG CLEAR 47 17 30 N6 30.25R BARNWELL FAIR 43 30 61 CALM 30.26R AIKEN FAIR 43 23 45 N7 30.29R MANNING FAIR 41 28 60 CALM 30.25R COLUMBIA CLEAR 46 19 34 N5 30.26R SUMTER CLEAR 44 20 38 NW1 30.24R FLORENCE CLEAR 43 18 36 N7 30.25R MYRTLE BEACH CLEAR 46 19 34 NW12 30.24R N MYRTLE BEACH CLEAR 45 17 32 N7 30.21R $$ GAZ063-065-086>088-099>101-113>116-118-119-134>141-150-310200- ...SOUTHEAST GEORGIA... CITY SKY/WX TMP DP RH WIND PRES REMARKS SAVANNAH ARPT PTCLDY 46 28 49 W3 30.26R HUNTER AAF CLEAR 49 28 44 NW7 30.23R FORT STEWART PTCLDY 46 30 54 NW5 30.24R STATESBORO CLEAR 39 33 78 NW3 30.25R SYLVANIA CLEAR 42 34 73 NW3 30.26R CLAXTON FAIR 43 34 70 CALM 30.26R ...CSRA...CENTRAL AND FAR SOUTHEAST GEORGIA... CITY SKY/WX TMP DP RH WIND PRES REMARKS THOMSON CLEAR 44 29 56 CALM 30.31R AUGUSTA-BUSH CLEAR 41 25 53 W7 30.25S AUGUSTA-DANIEL CLEAR 50 22 33 W5 30.25R SWAINSBORO FAIR 41 27 56 CALM 30.27R VIDALIA PTCLDY 48 30 49 NW6 30.26R EASTMAN FAIR 40 31 70 CALM 30.31R HAZLEHURST FAIR 51 29 44 N7 30.25S ALMA MOCLDY 44 31 60 CALM 30.26R WAYCROSS MOCLDY 52 33 48 NW5 30.26R JESUP FAIR 50 32 50 CALM 30.25R BAXLEY FAIR 50 32 50 N3 30.26R BRUNSWICK MOCLDY 50 30 46 CALM 30.25R SAINT SIMONS MOCLDY 52 28 39 NW6 30.24R $$ SCZ027-028-034-036>038-045-046-048>050-GAZ119-141-310200- ...LAKE AND SUPPLEMENTAL COASTAL OBSERVATIONS... STATION/POSITION TIME TEMP WIND PRES WAVE SWELL AIR SEA DIR/SP/G HT/PER HT/PER/DIR (UTC) (F) (DEG/KT/KT) (MB) (FT/S) (FT/S/D) UPR LAKE MARION NOT AVBL WINYAH BAY 2345 48 310/ 6 1021.0 LAKE MURRAY 0000 45 320/ 3/ 7 1023.7R ACE BASIN NERRS NOT AVBL FORT PULASKI 0000 52 53 320/ 11/ 12 1023.7R SAPELO ISLAND 0000 50 320/ 6 1023.0 $$ ANZ835-935-AMZ111-154-330-350-352-354-370-450-454-472-310200- ...C-MAN AND BUOY OBSERVATIONS... STATION/POSITION TIME TEMP WIND PRES WAVE SWELL AIR SEA DIR/SP/G HT/PER HT/PER/DIR (UTC) (F) (DEG/KT/KT) (MB) (FT/S) (FT/S/D) BUOY 41004 0050 55 68 330/ 21/ 27 1022.2R 6/ 5 2/11 BUOY 41008 0050 55 54 350/ 14/ 16 1023.4R 2/11 2/ 60/11 FOLLY BEACH CMAN 0000 48 310/ 4/ 7 1023.8R CAPERS NEARSHORE 0000 51 320/ 12/ 14 N/A FRIPP NEARSHORE 0000 53 360/ 16/ 17 1022.3R STATION/POSITION TIME TEMP WIND PRES WAVE SWELL AIR SEA DIR/SP/G HT/PER HT/PER/DIR (UTC) (F) (DEG/KT/KT) (MB) (FT/S) (FT/S/D) 5E ST. MARYS GA 0021 56 N/A 2/13 FRYING PAN BUOY 0050 50 62 320/ 23/ 27 1022.2R 6/ 5 BUOY 41025 0050 45 66 350/ 16/ 19 1018.6R 5/ 6 3/ 10/ 7 CAPE LOOKOUT NC 0000 46 300/ 17/ 20 1019.7R BUOY 41002 0050 59 71 320/ 25/ 31 1017.6R 11/ 9 BUOY 41010 0020 65 73 330/ 17/ 23 1020.4R ST AUGUSTINE FL 0100 56 340/ 8/ 10 1023.9R $$

USA.gov is the U.S. government's official web portal to all federal, state and local government web resources and services.